Location: Le Rocchette
(44.3500°N, 7.8333°E)
Time: 14:21:18
(UTC+00:00)

PSLV R/B - Pass Details

Date: 22 February 2020
Orbit: 505 x 578 km, 97.8° (Epoch: 01 April)

Event Time Altitude Azimuth Distance (km) Brightness Sun altitude
Rises 04:48:40 0° 12° (NNE) 2,636 7.5 -16.8°
Reaches altitude 10° 04:50:45 10° 11° (N) 1,752 6.5 -16.4°
Maximum altitude 04:54:31 82° 284° (WNW) 534 3.6 -15.8°
Drops below altitude 10° 04:58:20 10° 197° (SSW) 1,775 6.2 -15.1°
Sets 05:00:28 0° 196° (SSW) 2,672 7.2 -14.7°
